Location: ??????
(38.0677°N, 22.9870°E)
Time: 12:00:59
(UTC+00:00)

Cosmos 1892 - Pass Details

Date: 23 May 2024
Orbit: 455 x 468 km, 82.5° (Epoch: 19 June)

Event Time Altitude Azimuth Distance (km) Brightness Sun altitude
Exits shadow 01:07:41 20° 139° (SE) 1,107 4.3 -19.9°
Maximum altitude 01:09:20 31° 92° (E) 829 4.1 -19.7°
Drops below altitude 10° 01:12:28 10° 29° (NNE) 1,605 6.3 -19.3°
Sets 01:14:41 0° 18° (NNE) 2,482 7.4 -19.0°
